Year,Month,Day,Hour,Minute,Value (Times are PST for temperature in C)
2015,08,14,00,00,17.60
2015,08,14,00,01,17.60
2015,08,14,00,02,17.60
2015,08,14,00,03,17.60
2015,08,14,00,04,17.60
2015,08,14,00,05,17.60
2015,08,14,00,06,17.60
2015,08,14,00,07,17.60
2015,08,14,00,08,17.60
2015,08,14,00,09,17.60
2015,08,14,00,10,17.60
2015,08,14,00,11,17.60
2015,08,14,00,12,17.60
2015,08,14,00,13,17.60
2015,08,14,00,14,17.60
2015,08,14,00,15,17.60
2015,08,14,00,16,17.70
2015,08,14,00,17,17.70
2015,08,14,00,18,17.70
2015,08,14,00,19,17.70
2015,08,14,00,20,17.70
2015,08,14,00,21,17.70
2015,08,14,00,22,17.60
2015,08,14,00,23,17.60
2015,08,14,00,24,17.60
2015,08,14,00,25,17.60
2015,08,14,00,26,17.60
2015,08,14,00,27,17.60
2015,08,14,00,28,17.60
2015,08,14,00,29,17.60
2015,08,14,00,30,17.50
2015,08,14,00,31,17.50
2015,08,14,00,32,17.50
2015,08,14,00,33,17.50
2015,08,14,00,34,17.50
2015,08,14,00,35,17.50
2015,08,14,00,36,17.50
2015,08,14,00,37,17.50
2015,08,14,00,38,17.50
2015,08,14,00,39,17.50
2015,08,14,00,40,17.50
2015,08,14,00,41,17.50
2015,08,14,00,42,17.50
2015,08,14,00,43,17.50
2015,08,14,00,44,17.50
2015,08,14,00,45,17.60
2015,08,14,00,46,17.60
2015,08,14,00,47,17.60
2015,08,14,00,48,17.60
2015,08,14,00,49,17.60
2015,08,14,00,50,17.60
2015,08,14,00,51,17.60
2015,08,14,00,52,17.60
2015,08,14,00,53,17.60
2015,08,14,00,54,17.60
2015,08,14,00,55,17.60
2015,08,14,00,56,17.60
2015,08,14,00,57,17.60
2015,08,14,00,58,17.60
2015,08,14,00,59,17.60
2015,08,14,01,00,17.60
2015,08,14,01,01,17.60
2015,08,14,01,02,17.60
2015,08,14,01,03,17.60
2015,08,14,01,04,17.60
2015,08,14,01,05,17.60
2015,08,14,01,06,17.60
2015,08,14,01,07,17.60
2015,08,14,01,08,17.60
2015,08,14,01,09,17.60
2015,08,14,01,10,17.60
2015,08,14,01,11,17.60
2015,08,14,01,12,17.60
2015,08,14,01,13,17.60
2015,08,14,01,14,17.60
2015,08,14,01,15,17.60
2015,08,14,01,16,17.60
2015,08,14,01,17,17.60
2015,08,14,01,18,17.60
2015,08,14,01,19,17.60
2015,08,14,01,20,17.60
2015,08,14,01,21,17.50
2015,08,14,01,22,17.50
2015,08,14,01,23,17.50
2015,08,14,01,24,17.50
2015,08,14,01,25,17.40
2015,08,14,01,26,17.40
2015,08,14,01,27,17.40
2015,08,14,01,28,17.40
2015,08,14,01,29,17.30
2015,08,14,01,30,17.30
2015,08,14,01,31,17.30
2015,08,14,01,32,17.30
2015,08,14,01,33,17.30
2015,08,14,01,34,17.30
2015,08,14,01,35,17.30
2015,08,14,01,36,17.30
2015,08,14,01,37,17.30
2015,08,14,01,38,17.30
2015,08,14,01,39,17.20
2015,08,14,01,40,17.20
2015,08,14,01,41,17.20
2015,08,14,01,42,17.20
2015,08,14,01,43,17.10
2015,08,14,01,44,17.10
2015,08,14,01,45,17.10
2015,08,14,01,46,17.10
2015,08,14,01,47,17.00
2015,08,14,01,48,17.00
2015,08,14,01,49,17.00
2015,08,14,01,50,16.90
2015,08,14,01,51,16.90
2015,08,14,01,52,16.90
2015,08,14,01,53,16.90
2015,08,14,01,54,16.80
2015,08,14,01,55,16.80
2015,08,14,01,56,16.80
2015,08,14,01,57,16.80
2015,08,14,01,58,16.80
2015,08,14,01,59,16.80
2015,08,14,02,00,16.80
2015,08,14,02,01,16.80
2015,08,14,02,02,16.80
2015,08,14,02,03,16.80
2015,08,14,02,04,16.90
2015,08,14,02,05,16.90
2015,08,14,02,06,16.90
2015,08,14,02,07,16.90
2015,08,14,02,08,16.90
2015,08,14,02,09,16.90
2015,08,14,02,10,16.90
2015,08,14,02,11,16.90
2015,08,14,02,12,16.80
2015,08,14,02,13,16.90
2015,08,14,02,14,16.90
2015,08,14,02,15,16.90
2015,08,14,02,16,16.90
2015,08,14,02,17,16.90
2015,08,14,02,18,16.90
2015,08,14,02,19,16.80
2015,08,14,02,20,16.80
2015,08,14,02,21,16.80
2015,08,14,02,22,16.80
2015,08,14,02,23,16.80
2015,08,14,02,24,16.80
2015,08,14,02,25,16.80
2015,08,14,02,26,16.80
2015,08,14,02,27,16.80
2015,08,14,02,28,16.80
2015,08,14,02,29,16.80
2015,08,14,02,30,16.80
2015,08,14,02,31,16.80
2015,08,14,02,32,16.80
2015,08,14,02,33,16.80
2015,08,14,02,34,16.80
2015,08,14,02,35,16.80
2015,08,14,02,36,16.80
2015,08,14,02,37,16.80
2015,08,14,02,38,16.80
2015,08,14,02,39,16.80
2015,08,14,02,40,16.70
2015,08,14,02,41,16.70
2015,08,14,02,42,16.70
2015,08,14,02,43,16.70
2015,08,14,02,44,16.70
2015,08,14,02,45,16.70
2015,08,14,02,46,16.70
2015,08,14,02,47,16.70
2015,08,14,02,48,16.70
2015,08,14,02,49,16.70
2015,08,14,02,50,16.70
2015,08,14,02,51,16.60
2015,08,14,02,52,16.60
2015,08,14,02,53,16.60
2015,08,14,02,54,16.60
2015,08,14,02,55,16.60
2015,08,14,02,56,16.60
2015,08,14,02,57,16.60
2015,08,14,02,58,16.60
2015,08,14,02,59,16.50
2015,08,14,03,00,16.50
2015,08,14,03,01,16.50
2015,08,14,03,02,16.50
2015,08,14,03,03,16.50
2015,08,14,03,04,16.50
2015,08,14,03,05,16.40
2015,08,14,03,06,16.50
2015,08,14,03,07,16.40
2015,08,14,03,08,16.40
2015,08,14,03,09,16.40
2015,08,14,03,10,16.40
2015,08,14,03,11,16.40
2015,08,14,03,12,16.40
2015,08,14,03,13,16.40
2015,08,14,03,14,16.40
2015,08,14,03,15,16.40
2015,08,14,03,16,16.40
2015,08,14,03,17,16.40
2015,08,14,03,18,16.40
2015,08,14,03,19,16.40
2015,08,14,03,20,16.40
2015,08,14,03,21,16.40
2015,08,14,03,22,16.30
2015,08,14,03,23,16.30
2015,08,14,03,24,16.30
2015,08,14,03,25,16.30
2015,08,14,03,26,16.30
2015,08,14,03,27,16.30
2015,08,14,03,28,16.20
2015,08,14,03,29,16.20
2015,08,14,03,30,16.20
2015,08,14,03,31,16.20
2015,08,14,03,32,16.10
2015,08,14,03,33,16.10
2015,08,14,03,34,16.10
2015,08,14,03,35,16.00
2015,08,14,03,36,16.00
2015,08,14,03,37,15.90
2015,08,14,03,38,15.90
2015,08,14,03,39,15.90
2015,08,14,03,40,15.80
2015,08,14,03,41,15.80
2015,08,14,03,42,15.80
2015,08,14,03,43,15.70
2015,08,14,03,44,15.70
2015,08,14,03,45,15.70
2015,08,14,03,46,15.70
2015,08,14,03,47,15.60
2015,08,14,03,48,15.60
2015,08,14,03,49,15.60
2015,08,14,03,50,15.60
2015,08,14,03,51,15.50
2015,08,14,03,52,15.50
2015,08,14,03,53,15.50
2015,08,14,03,54,15.40
2015,08,14,03,55,15.40
2015,08,14,03,56,15.40
2015,08,14,03,57,15.40
2015,08,14,03,58,15.40
2015,08,14,03,59,15.40
2015,08,14,04,00,15.40
2015,08,14,04,01,15.40
2015,08,14,04,02,15.40
2015,08,14,05,02,14.80
2015,08,14,05,03,14.80
2015,08,14,05,04,14.80
2015,08,14,05,05,14.80
2015,08,14,05,06,14.80
2015,08,14,05,07,14.80
2015,08,14,05,08,14.80
2015,08,14,05,09,14.80
2015,08,14,05,10,14.80
2015,08,14,05,11,14.90
2015,08,14,05,12,14.90
2015,08,14,05,13,14.90
2015,08,14,05,14,14.90
2015,08,14,05,15,14.90
2015,08,14,05,16,14.90
2015,08,14,05,17,14.90
2015,08,14,05,18,14.90
2015,08,14,05,19,14.90
2015,08,14,05,20,15.00
2015,08,14,05,21,15.00
2015,08,14,05,22,15.00
2015,08,14,05,23,14.90
2015,08,14,05,24,14.90
2015,08,14,05,25,14.90
2015,08,14,05,26,14.90
2015,08,14,05,27,14.90
2015,08,14,05,28,14.90
2015,08,14,05,29,14.90
2015,08,14,05,30,14.90
2015,08,14,05,31,14.90
2015,08,14,05,32,14.90
2015,08,14,05,33,14.80
2015,08,14,05,34,14.80
2015,08,14,05,35,14.80
2015,08,14,05,36,14.80
2015,08,14,05,37,14.80
2015,08,14,05,38,14.80
2015,08,14,05,39,14.80
2015,08,14,05,40,14.80
2015,08,14,05,41,14.80
2015,08,14,05,42,14.80
2015,08,14,05,43,14.80
2015,08,14,05,44,14.70
2015,08,14,05,45,14.70
2015,08,14,05,46,14.70
2015,08,14,05,47,14.70
2015,08,14,05,48,14.70
2015,08,14,05,49,14.70
2015,08,14,05,50,14.70
2015,08,14,05,51,14.70
2015,08,14,05,52,14.70
2015,08,14,05,53,14.70
2015,08,14,05,54,14.70
2015,08,14,05,55,14.60
2015,08,14,05,56,14.60
2015,08,14,05,57,14.60
2015,08,14,05,58,14.60
2015,08,14,05,59,14.60
2015,08,14,06,00,14.60
2015,08,14,06,01,14.60
2015,08,14,06,02,14.60
2015,08,14,06,03,14.60
2015,08,14,06,04,14.60
2015,08,14,06,05,14.60
2015,08,14,06,06,14.60
2015,08,14,06,07,14.60
2015,08,14,06,08,14.60
2015,08,14,06,09,14.60
2015,08,14,06,10,14.60
2015,08,14,06,11,14.60
2015,08,14,06,12,14.60
2015,08,14,06,13,14.60
2015,08,14,06,14,14.70
2015,08,14,06,15,14.70
2015,08,14,06,16,14.70
2015,08,14,06,17,14.70
2015,08,14,06,18,14.70
2015,08,14,06,19,14.70
2015,08,14,06,20,14.70
2015,08,14,06,21,14.70
2015,08,14,06,22,14.70
2015,08,14,06,23,14.70
2015,08,14,06,24,14.80
2015,08,14,06,25,14.80
2015,08,14,06,26,14.80
2015,08,14,06,27,14.80
2015,08,14,06,28,14.80
2015,08,14,06,29,14.80
2015,08,14,06,30,14.90
2015,08,14,06,31,14.90
2015,08,14,06,32,14.90
2015,08,14,06,33,15.00
2015,08,14,06,34,15.00
2015,08,14,06,35,15.00
2015,08,14,06,36,15.00
2015,08,14,06,37,15.00
2015,08,14,06,38,15.00
2015,08,14,06,39,14.90
2015,08,14,06,40,14.90
2015,08,14,06,41,14.90
2015,08,14,06,42,14.90
2015,08,14,06,43,14.90
2015,08,14,06,44,14.90
2015,08,14,06,45,14.90
2015,08,14,06,46,14.90
2015,08,14,06,47,14.90
2015,08,14,06,48,14.90
2015,08,14,06,49,14.80
2015,08,14,06,50,14.80
2015,08,14,06,51,14.80
2015,08,14,06,52,14.80
2015,08,14,06,53,14.80
2015,08,14,06,54,14.80
2015,08,14,06,55,14.80
2015,08,14,06,56,14.80
2015,08,14,06,57,14.80
2015,08,14,06,58,14.80
2015,08,14,06,59,14.70
2015,08,14,07,00,14.70
2015,08,14,07,01,14.60
2015,08,14,07,02,14.60
2015,08,14,07,03,14.60
2015,08,14,07,04,14.60
2015,08,14,07,05,14.60
2015,08,14,07,06,14.60
2015,08,14,07,07,14.60
2015,08,14,07,08,14.70
2015,08,14,07,09,14.70
2015,08,14,07,10,14.70
2015,08,14,07,11,14.70
2015,08,14,07,12,14.70
2015,08,14,07,13,14.70
2015,08,14,07,14,14.80
2015,08,14,07,15,14.80
2015,08,14,07,16,14.80
2015,08,14,07,17,14.80
2015,08,14,07,18,14.90
2015,08,14,07,19,15.00
2015,08,14,07,20,15.00
2015,08,14,07,21,15.10
2015,08,14,07,22,15.10
2015,08,14,07,23,15.20
2015,08,14,07,24,15.20
2015,08,14,07,25,15.20
2015,08,14,07,26,15.20
2015,08,14,07,27,15.20
2015,08,14,07,28,15.20
2015,08,14,07,29,15.20
2015,08,14,07,30,15.20
2015,08,14,07,31,15.30
2015,08,14,07,32,15.30
2015,08,14,07,33,15.30
2015,08,14,07,34,15.30
2015,08,14,07,35,15.30
2015,08,14,07,36,15.30
2015,08,14,07,37,15.30
2015,08,14,07,38,15.40
2015,08,14,07,39,15.40
2015,08,14,07,40,15.40
2015,08,14,07,41,15.50
2015,08,14,07,42,15.50
2015,08,14,07,43,15.60
2015,08,14,07,44,15.60
2015,08,14,07,45,15.70
2015,08,14,07,46,15.70
2015,08,14,07,47,15.70
2015,08,14,07,48,15.80
2015,08,14,07,49,15.80
2015,08,14,07,50,15.90
2015,08,14,07,51,15.90
2015,08,14,07,52,16.00
2015,08,14,07,53,16.10
2015,08,14,07,54,16.20
2015,08,14,07,55,16.30
2015,08,14,07,56,16.40
2015,08,14,07,57,16.50
2015,08,14,07,58,16.60
2015,08,14,07,59,16.60
2015,08,14,08,00,16.70
2015,08,14,08,01,16.80
2015,08,14,08,02,16.80
2015,08,14,08,03,16.80
2015,08,14,08,04,16.80
2015,08,14,08,05,16.80
2015,08,14,08,06,16.90
2015,08,14,08,07,16.90
2015,08,14,08,08,17.00
2015,08,14,08,09,17.00
2015,08,14,08,10,17.10
2015,08,14,08,11,17.10
2015,08,14,08,12,17.10
2015,08,14,08,13,17.10
2015,08,14,08,14,17.20
2015,08,14,08,15,17.20
2015,08,14,08,16,17.30
2015,08,14,08,17,17.30
2015,08,14,08,18,17.30
2015,08,14,08,19,17.40
2015,08,14,08,20,17.40
2015,08,14,08,21,17.40
2015,08,14,08,22,17.40
2015,08,14,08,23,17.40
2015,08,14,08,24,17.50
2015,08,14,08,25,17.50
2015,08,14,08,26,17.50
2015,08,14,08,27,17.50
2015,08,14,08,28,17.60
2015,08,14,08,29,17.60
2015,08,14,08,30,17.60
2015,08,14,08,31,17.60
2015,08,14,08,32,17.60
2015,08,14,08,33,17.60
2015,08,14,08,34,17.60
2015,08,14,08,35,17.70
2015,08,14,08,36,17.70
2015,08,14,08,37,17.70
2015,08,14,08,38,17.80
2015,08,14,08,39,17.80
2015,08,14,08,40,17.90
2015,08,14,08,41,17.90
2015,08,14,08,42,18.00
2015,08,14,08,43,18.00
2015,08,14,08,44,18.10
2015,08,14,08,45,18.00
2015,08,14,08,46,18.00
2015,08,14,08,47,18.00
2015,08,14,08,48,18.00
2015,08,14,08,49,18.00
2015,08,14,08,50,18.10
2015,08,14,08,51,18.10
2015,08,14,08,52,18.10
2015,08,14,08,53,18.10
2015,08,14,08,54,18.10
2015,08,14,08,55,18.10
2015,08,14,08,56,18.00
2015,08,14,08,57,18.00
2015,08,14,08,58,17.90
2015,08,14,08,59,17.90
2015,08,14,09,00,17.90
2015,08,14,09,01,17.80
2015,08,14,09,02,17.90
2015,08,14,09,03,17.90
2015,08,14,09,04,18.00
2015,08,14,09,05,18.00
2015,08,14,09,06,18.10
2015,08,14,09,07,18.00
2015,08,14,09,08,18.00
2015,08,14,09,09,18.00
2015,08,14,09,10,18.00
2015,08,14,09,11,18.00
2015,08,14,09,12,18.10
2015,08,14,09,13,18.20
2015,08,14,09,14,18.30
2015,08,14,09,15,18.30
2015,08,14,09,16,18.40
2015,08,14,09,17,18.40
2015,08,14,09,18,18.40
2015,08,14,09,19,18.50
2015,08,14,09,20,18.50
2015,08,14,09,21,18.60
2015,08,14,09,22,18.60
2015,08,14,09,23,18.60
2015,08,14,09,24,18.60
2015,08,14,09,25,18.60
2015,08,14,09,26,18.60
2015,08,14,09,27,18.70
2015,08,14,09,28,18.70
2015,08,14,09,29,18.70
2015,08,14,09,30,18.70
2015,08,14,09,31,18.80
2015,08,14,09,32,18.80
2015,08,14,09,33,18.80
2015,08,14,09,34,18.80
2015,08,14,09,35,18.90
2015,08,14,09,36,18.90
2015,08,14,09,37,18.90
2015,08,14,09,38,19.00
2015,08,14,09,39,19.10
2015,08,14,09,40,19.10
2015,08,14,09,41,19.10
2015,08,14,09,42,19.20
2015,08,14,09,43,19.30
2015,08,14,09,44,19.40
2015,08,14,09,45,19.50
2015,08,14,09,46,19.60
2015,08,14,09,47,19.60
2015,08,14,09,48,19.70
2015,08,14,09,49,19.80
2015,08,14,09,50,20.00
2015,08,14,09,51,20.10
2015,08,14,09,52,20.20
2015,08,14,09,53,20.30
2015,08,14,09,54,20.30
2015,08,14,09,55,20.40
2015,08,14,09,56,20.40
2015,08,14,09,57,20.50
2015,08,14,09,58,20.50
2015,08,14,09,59,20.60
2015,08,14,10,00,20.70
2015,08,14,10,01,20.60
2015,08,14,10,02,20.40
2015,08,14,10,03,20.40
2015,08,14,10,04,20.30
2015,08,14,10,05,20.20
2015,08,14,10,06,20.10
2015,08,14,10,07,20.00
2015,08,14,10,08,20.00
2015,08,14,10,09,20.00
2015,08,14,10,10,20.10
2015,08,14,10,11,20.20
2015,08,14,10,12,20.30
2015,08,14,10,13,20.30
2015,08,14,10,14,20.30
2015,08,14,10,15,20.40
2015,08,14,10,16,20.50
2015,08,14,10,17,20.60
2015,08,14,10,18,20.60
2015,08,14,10,19,20.60
2015,08,14,10,20,20.60
2015,08,14,10,21,20.50
2015,08,14,10,22,20.40
2015,08,14,10,23,20.30
2015,08,14,10,24,20.20
2015,08,14,10,25,20.10
2015,08,14,10,26,20.00
2015,08,14,10,27,19.90
2015,08,14,10,28,19.90
2015,08,14,10,29,19.80
2015,08,14,10,30,19.90
2015,08,14,10,31,20.00
2015,08,14,10,32,20.00
2015,08,14,10,33,20.00
2015,08,14,10,34,19.90
2015,08,14,10,35,19.90
2015,08,14,10,36,19.90
2015,08,14,10,37,19.90
2015,08,14,10,38,20.00
2015,08,14,10,39,20.10
2015,08,14,10,40,20.10
2015,08,14,10,41,20.10
2015,08,14,10,42,20.10
2015,08,14,10,43,20.10
2015,08,14,10,44,20.20
2015,08,14,10,45,20.20
2015,08,14,10,46,20.20
2015,08,14,10,47,20.20
2015,08,14,10,48,20.20
2015,08,14,10,49,20.10
2015,08,14,10,50,20.10
2015,08,14,10,51,20.10
2015,08,14,10,52,20.10
2015,08,14,10,53,20.20
2015,08,14,10,54,20.20
2015,08,14,10,55,20.20
2015,08,14,10,56,20.20
2015,08,14,10,57,20.10
2015,08,14,10,58,20.20
2015,08,14,10,59,20.20
2015,08,14,11,00,20.30
2015,08,14,11,01,20.50
2015,08,14,11,02,20.60
2015,08,14,11,03,20.70
2015,08,14,11,04,20.80
2015,08,14,11,05,20.90
2015,08,14,11,06,20.90
2015,08,14,11,07,21.00
2015,08,14,11,08,21.00
2015,08,14,11,09,21.00
2015,08,14,11,10,21.00
2015,08,14,11,11,20.90
2015,08,14,11,12,20.80
2015,08,14,11,13,20.80
2015,08,14,11,14,20.70
2015,08,14,11,15,20.70
2015,08,14,11,16,20.60
2015,08,14,11,17,20.70
2015,08,14,11,18,20.70
2015,08,14,11,19,20.80
2015,08,14,11,20,20.80
2015,08,14,11,21,20.70
2015,08,14,11,22,20.70
2015,08,14,11,23,20.80
2015,08,14,11,24,20.80
2015,08,14,11,25,20.80
2015,08,14,11,26,20.90
2015,08,14,11,27,21.00
2015,08,14,11,28,21.10
2015,08,14,11,29,21.30
2015,08,14,11,30,21.20
2015,08,14,11,31,21.30
2015,08,14,11,32,21.40
2015,08,14,11,33,21.50
2015,08,14,11,34,21.60
2015,08,14,11,35,21.70
2015,08,14,11,36,21.80
2015,08,14,11,37,21.70
2015,08,14,11,38,21.70
2015,08,14,11,39,21.70
2015,08,14,11,40,21.70
2015,08,14,11,41,21.80
2015,08,14,11,42,21.70
2015,08,14,11,43,21.60
2015,08,14,11,44,21.50
2015,08,14,11,45,21.40
2015,08,14,11,46,21.50
2015,08,14,11,47,21.60
2015,08,14,11,48,21.60
2015,08,14,11,49,21.70
2015,08,14,11,50,21.70
2015,08,14,11,51,21.90
2015,08,14,11,52,22.00
2015,08,14,11,53,22.20
2015,08,14,11,54,22.30
2015,08,14,11,55,22.40
2015,08,14,11,56,22.30
2015,08,14,11,57,22.30
2015,08,14,11,58,22.30
2015,08,14,11,59,22.20
2015,08,14,12,00,22.10
2015,08,14,12,01,22.10
2015,08,14,12,02,22.00
2015,08,14,12,03,22.00
2015,08,14,12,04,22.00
2015,08,14,12,05,21.90
2015,08,14,12,06,21.90
2015,08,14,12,07,21.90
2015,08,14,12,08,21.90
2015,08,14,12,09,21.90
2015,08,14,12,10,21.90
2015,08,14,12,11,21.90
2015,08,14,12,12,21.90
2015,08,14,12,13,22.00
2015,08,14,12,14,22.10
2015,08,14,12,15,22.20
2015,08,14,12,16,22.40
2015,08,14,12,17,22.50
2015,08,14,12,18,22.40
2015,08,14,12,19,22.40
2015,08,14,12,20,22.30
2015,08,14,12,21,22.30
2015,08,14,12,22,22.30
2015,08,14,12,23,22.40
2015,08,14,12,24,22.50
2015,08,14,12,25,22.60
2015,08,14,12,26,22.60
2015,08,14,12,27,22.50
2015,08,14,12,28,22.40
2015,08,14,12,29,22.50
2015,08,14,12,30,22.50
2015,08,14,12,31,22.60
2015,08,14,12,32,22.50
2015,08,14,12,33,22.50
2015,08,14,12,34,22.40
2015,08,14,12,35,22.40
2015,08,14,12,36,22.40
2015,08,14,12,37,22.50
2015,08,14,12,38,22.40
2015,08,14,12,39,22.50
2015,08,14,12,40,22.50
2015,08,14,12,41,22.50
2015,08,14,12,42,22.50
2015,08,14,12,43,22.60
2015,08,14,12,44,22.60
2015,08,14,12,45,22.70
2015,08,14,12,46,22.60
2015,08,14,12,47,22.60
2015,08,14,12,48,22.70
2015,08,14,12,49,22.70
2015,08,14,12,50,22.80
2015,08,14,12,51,22.80
2015,08,14,12,52,22.70
2015,08,14,12,53,22.70
2015,08,14,12,54,22.80
2015,08,14,12,55,22.80
2015,08,14,12,56,22.80
2015,08,14,12,57,22.80
2015,08,14,12,58,22.70
2015,08,14,12,59,22.80
2015,08,14,13,00,22.80
2015,08,14,13,01,22.80
2015,08,14,13,02,22.60
2015,08,14,13,03,22.50
2015,08,14,13,04,22.50
2015,08,14,13,05,22.50
2015,08,14,13,06,22.50
2015,08,14,13,07,22.60
2015,08,14,13,08,22.70
2015,08,14,13,09,22.80
2015,08,14,13,10,22.90
2015,08,14,13,11,22.90
2015,08,14,13,12,22.90
2015,08,14,13,13,22.80
2015,08,14,13,14,22.80
2015,08,14,13,15,22.70
2015,08,14,13,16,22.70
2015,08,14,13,17,22.70
2015,08,14,13,18,22.70
2015,08,14,13,19,22.70
2015,08,14,13,20,22.80
2015,08,14,13,21,22.80
2015,08,14,13,22,22.90
2015,08,14,13,23,23.00
2015,08,14,13,24,23.10
2015,08,14,13,25,23.10
2015,08,14,13,26,23.20
2015,08,14,13,27,23.30
2015,08,14,13,28,23.40
2015,08,14,13,29,23.40
2015,08,14,13,30,23.40
2015,08,14,13,31,23.40
2015,08,14,13,32,23.40
2015,08,14,13,33,23.50
2015,08,14,13,34,23.50
2015,08,14,13,35,23.50
2015,08,14,13,36,23.50
2015,08,14,13,37,23.40
2015,08,14,13,38,23.40
2015,08,14,13,39,23.40
2015,08,14,13,40,23.30
2015,08,14,13,41,23.20
2015,08,14,13,42,23.20
2015,08,14,13,43,23.20
2015,08,14,13,44,23.20
2015,08,14,13,45,23.20
2015,08,14,13,46,23.20
2015,08,14,13,47,23.20
2015,08,14,13,48,23.20
2015,08,14,13,49,23.10
2015,08,14,13,50,23.10
2015,08,14,13,51,23.00
2015,08,14,13,52,23.00
2015,08,14,13,53,22.90
2015,08,14,13,54,22.80
2015,08,14,13,55,22.70
2015,08,14,13,56,22.60
2015,08,14,13,57,22.50
2015,08,14,13,58,22.50
2015,08,14,13,59,22.50
2015,08,14,14,00,22.50
2015,08,14,14,01,22.50
2015,08,14,14,02,22.50
2015,08,14,14,03,22.40
2015,08,14,14,04,22.40
2015,08,14,14,05,22.40
2015,08,14,14,06,22.40
2015,08,14,14,07,22.40
2015,08,14,14,08,22.40
2015,08,14,14,09,22.40
2015,08,14,14,10,22.40
2015,08,14,14,11,22.40
2015,08,14,14,12,22.40
2015,08,14,14,13,22.30
2015,08,14,14,14,22.30
2015,08,14,14,15,22.30
2015,08,14,14,16,22.20
2015,08,14,14,17,22.20
2015,08,14,14,18,22.20
2015,08,14,14,19,22.10
2015,08,14,14,20,22.10
2015,08,14,14,21,22.10
2015,08,14,14,22,22.20
2015,08,14,14,23,22.30
2015,08,14,14,24,22.30
2015,08,14,14,25,22.30
2015,08,14,14,26,22.30
2015,08,14,14,27,22.30
2015,08,14,14,28,22.30
2015,08,14,14,29,22.30
2015,08,14,14,30,22.30
2015,08,14,14,31,22.30
2015,08,14,14,32,22.20
2015,08,14,14,33,22.20
2015,08,14,14,34,22.30
2015,08,14,14,35,22.30
2015,08,14,14,36,22.30
2015,08,14,14,37,22.30
2015,08,14,14,38,22.40
2015,08,14,14,39,22.40
2015,08,14,14,40,22.40
2015,08,14,14,41,22.50
2015,08,14,14,42,22.50
2015,08,14,14,43,22.50
2015,08,14,14,44,22.60
2015,08,14,14,45,22.70
2015,08,14,14,46,22.70
2015,08,14,14,47,22.80
2015,08,14,14,48,22.80
2015,08,14,14,49,22.90
2015,08,14,14,50,22.90
2015,08,14,14,51,22.90
2015,08,14,14,52,23.00
2015,08,14,14,53,23.00
2015,08,14,14,54,23.10
2015,08,14,14,55,23.00
2015,08,14,14,56,23.00
2015,08,14,14,57,23.10
2015,08,14,14,58,23.10
2015,08,14,14,59,23.10
2015,08,14,15,00,23.00
2015,08,14,15,01,23.00
2015,08,14,15,02,23.10
2015,08,14,15,03,23.10
2015,08,14,15,04,23.20
2015,08,14,15,05,23.30
2015,08,14,15,06,23.40
2015,08,14,15,07,23.40
2015,08,14,15,08,23.40
2015,08,14,15,09,23.50
2015,08,14,15,10,23.60
2015,08,14,15,11,23.50
2015,08,14,15,12,23.50
2015,08,14,15,13,23.50
2015,08,14,15,14,23.30
2015,08,14,15,15,23.20
2015,08,14,15,16,23.10
2015,08,14,15,17,23.10
2015,08,14,15,18,23.10
2015,08,14,15,19,23.20
2015,08,14,15,20,23.20
2015,08,14,15,21,23.20
2015,08,14,15,22,23.30
2015,08,14,15,23,23.40
2015,08,14,15,24,23.50
2015,08,14,15,25,23.60
2015,08,14,15,26,23.60
2015,08,14,15,27,23.60
2015,08,14,15,28,23.60
2015,08,14,15,29,23.60
2015,08,14,15,30,23.60
2015,08,14,15,31,23.50
2015,08,14,15,32,23.50
2015,08,14,15,33,23.50
2015,08,14,15,34,23.50
2015,08,14,15,35,23.40
2015,08,14,15,36,23.50
2015,08,14,15,37,23.60
2015,08,14,15,38,23.70
2015,08,14,15,39,23.70
2015,08,14,15,40,23.60
2015,08,14,15,41,23.50
2015,08,14,15,42,23.50
2015,08,14,15,43,23.40
2015,08,14,15,44,23.40
2015,08,14,15,45,23.40
2015,08,14,15,46,23.50
2015,08,14,15,47,23.60
2015,08,14,15,48,23.60
2015,08,14,15,49,23.60
2015,08,14,15,50,23.50
2015,08,14,15,51,23.50
2015,08,14,15,52,23.50
2015,08,14,15,53,23.40
2015,08,14,15,54,23.00
2015,08,14,15,55,22.60
2015,08,14,15,56,22.10
2015,08,14,15,57,21.70
2015,08,14,15,58,21.40
2015,08,14,15,59,21.00
2015,08,14,16,00,20.70
2015,08,14,16,01,20.50
2015,08,14,16,02,20.40
2015,08,14,16,03,20.30
2015,08,14,16,04,20.30
2015,08,14,16,05,20.20
2015,08,14,16,06,20.00
2015,08,14,16,07,19.90
2015,08,14,16,08,19.70
2015,08,14,16,09,19.60
2015,08,14,16,10,19.50
2015,08,14,16,11,19.40
2015,08,14,16,12,19.40
2015,08,14,16,13,19.30
2015,08,14,16,14,19.30
2015,08,14,16,15,19.30
2015,08,14,16,16,19.40
2015,08,14,16,17,19.40
2015,08,14,16,18,19.40
2015,08,14,16,19,19.40
2015,08,14,16,20,19.40
2015,08,14,16,21,19.40
2015,08,14,16,22,19.30
2015,08,14,16,23,19.20
2015,08,14,16,24,19.20
2015,08,14,16,25,19.10
2015,08,14,16,26,19.10
2015,08,14,16,27,19.20
2015,08,14,16,28,19.20
2015,08,14,16,29,19.20
2015,08,14,16,30,19.20
2015,08,14,16,31,19.20
2015,08,14,16,32,19.30
2015,08,14,16,33,19.30
2015,08,14,16,34,19.30
2015,08,14,16,35,19.30
2015,08,14,16,36,19.30
2015,08,14,16,37,19.30
2015,08,14,16,38,19.30
2015,08,14,16,39,19.30
2015,08,14,16,40,19.30
2015,08,14,16,41,19.30
2015,08,14,16,42,19.30
2015,08,14,16,43,19.30
2015,08,14,16,44,19.20
2015,08,14,16,45,19.30
2015,08,14,16,46,19.30
2015,08,14,16,47,19.30
2015,08,14,16,48,19.30
2015,08,14,16,49,19.30
2015,08,14,16,50,19.30
2015,08,14,16,51,19.30
2015,08,14,16,52,19.30
2015,08,14,16,53,19.30
2015,08,14,16,54,19.20
2015,08,14,16,55,19.10
2015,08,14,16,56,19.00
2015,08,14,16,57,19.00
2015,08,14,16,58,18.90
2015,08,14,16,59,18.80
2015,08,14,17,00,18.70
2015,08,14,17,01,18.70
2015,08,14,17,02,18.60
2015,08,14,17,03,18.50
2015,08,14,17,04,18.40
2015,08,14,17,05,18.40
2015,08,14,17,06,18.40
2015,08,14,17,07,18.30
2015,08,14,17,08,18.30
2015,08,14,17,09,18.30
2015,08,14,17,10,18.30
2015,08,14,17,11,18.20
2015,08,14,17,12,18.20
2015,08,14,17,13,18.20
2015,08,14,17,14,18.20
2015,08,14,17,15,18.20
2015,08,14,17,16,18.20
2015,08,14,17,17,18.20
2015,08,14,17,18,18.20
2015,08,14,17,19,18.30
2015,08,14,17,20,18.30
2015,08,14,17,21,18.20
2015,08,14,17,22,18.20
2015,08,14,17,23,18.20
2015,08,14,17,24,18.20
2015,08,14,17,25,18.20
2015,08,14,17,26,18.20
2015,08,14,17,27,18.20
2015,08,14,17,28,18.20
2015,08,14,17,29,18.10
2015,08,14,17,30,18.10
2015,08,14,17,31,18.10
2015,08,14,17,32,18.10
2015,08,14,17,33,18.10
2015,08,14,17,34,18.00
2015,08,14,17,35,18.10
2015,08,14,17,36,18.10
2015,08,14,17,37,18.00
2015,08,14,17,38,18.10
2015,08,14,17,39,18.10
2015,08,14,17,40,18.10
2015,08,14,17,41,18.10
2015,08,14,17,42,18.20
2015,08,14,17,43,18.20
2015,08,14,17,44,18.30
2015,08,14,17,45,18.30
2015,08,14,17,46,18.40
2015,08,14,17,47,18.50
2015,08,14,17,48,18.60
2015,08,14,17,49,18.70
2015,08,14,17,50,18.70
2015,08,14,17,51,18.80
2015,08,14,17,52,18.90
2015,08,14,17,53,19.00
2015,08,14,17,54,19.10
2015,08,14,17,55,19.10
2015,08,14,17,56,19.10
2015,08,14,17,57,19.10
2015,08,14,17,58,19.20
2015,08,14,17,59,19.20
2015,08,14,18,00,19.20
2015,08,14,18,01,19.20
2015,08,14,18,02,19.20
2015,08,14,18,03,19.20
2015,08,14,18,04,19.20
2015,08,14,18,05,19.10
2015,08,14,18,06,19.10
2015,08,14,18,07,19.10
2015,08,14,18,08,19.10
2015,08,14,18,09,19.10
2015,08,14,18,10,19.10
2015,08,14,18,11,19.00
2015,08,14,18,12,19.00
2015,08,14,18,13,18.90
2015,08,14,18,14,18.90
2015,08,14,18,15,18.90
2015,08,14,18,16,18.90
2015,08,14,18,17,18.80
2015,08,14,18,18,18.80